#timestamp,LO_Frequency,Hit,StdDev 
1679997615.1,286046999.4,N
1679997635.9,286046999.6,N
1679997655.7,286046998.9,N
1679997675.5,286046998.6,N
1679997695.4,286046998.1,N
1679997715.2,286047000.1,N
1679997735.1,286047002.1,N
1679997736.0,286047002.1,N
1679997755.8,286047002.0,N
1679997775.6,286047000.4,N
1679997795.5,286047000.0,N
1679997815.3,286046999.8,N
1679997835.1,286047002.1,N
1679997855.9,286047002.6,N
1679997875.7,286046999.1,N
1679997895.6,286046999.1,N
1679997915.4,286046999.1,N
1679997935.2,286046995.3,N
1679997955.1,286046998.0,N
1679997956.0,286046998.0,N
1679997975.8,286046999.5,N
1679997995.6,286046999.1,N
1679998015.5,286046997.3,N
1679998035.3,286046997.7,N
1679998055.2,286046997.1,N
1679998075.0,286046997.7,N
1679998075.9,286046997.7,N
1679998095.8,286046997.5,N
1679998115.6,286046994.9,N
1679998135.4,286046996.2,N
1679998155.3,286046995.6,N
1679998175.1,286046996.7,N
1679998195.8,286046997.2,N
1679998215.7,286046998.6,N
1679998235.5,286047001.2,N
1679998255.4,286047000.7,N
1679998275.2,286047002.1,N
1679998295.0,286047002.2,N
1679998295.9,286047002.2,N
1679998315.8,286047004.4,N
1679998335.6,286047004.0,N
1679998355.5,286047005.9,N
1679998375.3,286047007.4,N
1679998395.1,286047007.5,N
1679998415.9,286047007.2,N
1679998435.7,286047005.0,N
1679998455.5,286047006.9,N
1679998475.4,286047007.6,N
1679998495.2,286047002.9,N
1679998515.1,286047003.7,N
1679998516.0,286047003.7,N
1679998535.8,286047001.9,N
1679998555.6,286047002.6,N
1679998575.5,286047001.7,N
1679998595.3,286047002.0,N
1679998615.2,286047002.0,N
1679998635.9,286047001.7,N
1679998655.7,286047003.8,N
1679998675.6,286047001.4,N
1679998695.4,286047001.5,N
1679998715.2,286047001.3,N
1679998735.1,286047005.9,N
1679998736.0,286047005.9,N
1679998755.8,286047005.1,N
1679998775.7,286047004.9,N
1679998795.5,286047003.5,N
1679998815.3,286047003.5,N
1679998835.2,286047004.1,N
1679998855.0,286047001.5,N
1679998855.9,286047001.5,N
1679998875.8,286046998.5,N
1679998895.6,286047001.1,N
1679998915.4,286046998.3,N
1679998935.3,286046999.8,N
1679998955.1,286047000.8,N
1679998975.9,286047000.2,N
1679998995.7,286047002.1,N
1679999015.5,286047001.9,N
1679999035.4,286047003.8,N
1679999055.2,286047005.8,Y
1679999075.0,286047004.4,P
1679999076.0,286047004.4,P
1679999095.8,286047002.0,N
1679999115.6,286047000.2,N
1679999135.5,286047000.9,N
1679999155.3,286047000.4,N
1679999175.2,286047000.1,N
1679999195.9,286047002.3,N
1679999215.7,286047002.1,N
1679999235.6,286047002.0,N
1679999255.4,286047000.6,N
1679999275.2,286047000.1,N
1679999295.1,286047000.0,N
1679999296.0,286047000.0,N
1679999315.8,286047000.3,N
1679999335.7,286047000.7,N
1679999355.5,286047000.9,N
1679999375.3,286047002.0,N
1679999395.2,286047002.6,N
1679999415.0,286047003.8,N
1679999415.9,286047003.8,N
1679999435.7,286047003.7,N
1679999455.6,286047003.7,N
1679999475.4,286047005.3,Y
1679999495.3,286047000.2,P
1679999515.1,286047001.2,N
1679999516.0,286047001.2,N
1679999535.8,286047000.7,N
1679999555.7,286047000.2,N
1679999575.5,286046998.3,N
1679999595.3,286047000.2,N
1679999615.2,286047000.9,N
1679999635.0,286046999.0,N
1679999635.9,286046999.0,N
1679999655.8,286046998.8,N
1679999675.6,286047000.7,N
1679999695.4,286046999.7,N
1679999715.3,286047002.7,N
1679999735.1,286047002.7,N
1679999755.8,286047002.6,N
1679999805.7,286047000.2,E
1679999815.6,286047000.9,N
1679999835.5,286046998.2,P
1679999855.3,286046999.2,N
1679999875.1,286046998.6,N
1679999895.9,286046998.4,N
1679999915.7,286046996.7,Y
1679999935.5,286046999.4,P
1679999955.4,286046998.2,P
1679999975.2,286047000.7,N
1679999995.1,286046998.8,N
1679999996.0,286046998.8,N
1680000015.8,286047000.7,N
1680000035.6,286047002.6,N
1680000055.5,286046999.7,N
1680000075.3,286047000.2,N
1680000095.1,286046999.9,N
1680000115.9,286047000.6,N
1680000135.7,286046999.7,N
1680000155.6,286047000.4,N
1680000175.4,286047002.4,N
1680000195.2,286047002.1,N
1680000215.1,286047004.4,Y
1680000216.0,286047004.4,P
1680000235.8,286047002.4,N
1680000255.6,286046996.5,N
1680000275.5,286046999.4,N
1680000295.3,286046998.5,N
1680000315.2,286047000.7,N
1680000335.9,286046997.1,N
1680000355.7,286046997.0,N
1680000375.6,286046998.6,N
1680000395.7,286047001.2,N
1680000415.5,286047000.6,N
1680000435.4,286047002.2,N
1680000455.2,286047000.0,N
1680000475.0,286046999.3,N
1680000475.9,286046999.3,N
1680000495.8,286046999.4,N
1680000515.6,286046998.1,N
1680000535.5,286047002.7,N
1680000555.3,286047002.3,N
1680000575.1,286047000.0,N
1680000595.9,286047000.8,N
1680000615.7,286046998.8,N
1680000635.6,286046998.9,N
1680000655.4,286046996.7,N
1680000675.2,286046997.6,N
1680000695.1,286046999.5,N
1680000696.0,286046999.5,N
1680000715.8,286046999.6,N
1680000735.7,286046996.8,N
1680000755.5,286046994.9,N
1680000775.3,286046996.6,N
1680000795.2,286047001.0,N
1680000815.0,286047000.3,N
1680000815.9,286047000.3,N
1680000835.7,286047002.5,N
1680000855.6,286047002.5,N
1680000875.4,286047004.1,N
1680000895.3,286047004.0,N
1680000915.1,286047003.8,N
1680000916.0,286047003.8,N
1680000935.8,286047000.0,N
1680000955.7,286047000.7,N
1680000975.5,286047001.5,N
1680000995.4,286047001.7,N
1680001015.2,286047001.7,N
1680001035.0,286047003.8,N
1680001035.9,286047003.8,N
1680001055.8,286047007.2,N
1680001075.6,286047004.0,N
1680001095.4,286047001.8,N
1680001115.3,286047000.6,N
1680001135.1,286046998.2,N
1680001155.9,286047000.3,N
1680001175.7,286046999.9,N
1680001195.5,286047002.7,N
